Home > Weather > Gelendzhik > Past weeks

Flag for Russia Past Weather in Gelendzhik, Russia — Yesterday and Last 2 Weeks

Now
70 °F

Thundershowers. Scattered clouds.


Feels Like: 70 °F
Forecast: 56 / 72 °F
Wind: 8 mph from West

Location: Anapa / Vitiazevo

Current Time: May 24, 2016 at 3:03:00 PM

Latest Report: May 24, 2016 at 2:30 PM


Visibility: N/A

Pressure: 29.80 "Hg

Humidity: 57%

Dew Point: 54 °F

Location of GelendzhikLocation

Past Weather in Gelendzhik — Graph

°F

Gelendzhik Temperature Yesterday

Maximum temperature yesterday: 64 °F (at 12:00 AM)
Minimum temperature yesterday: 52 °F (at 11:30 PM)
Average temperature yesterday: 61 °F

High & Low Weather Summary for the Past Weeks

 TemperatureHumidityPressure
High75 °F (May 22, 12:30 PM)100% (May 10, 9:00 PM)30.15 "Hg (May 10, 9:00 PM)
Low43 °F (May 21, 5:00 AM)39% (May 22, 1:00 PM)29.62 "Hg (May 13, 9:30 PM)
Average61 °F82%29.89 "Hg
* Reported May 9 1:00 PM — May 24 1:30 PM, Gelendzhik, Weather by CustomWeather, © 2016

Note: Actual official high and low records may vary slightly from our data, if they occured in-between our weather recording intervals... More about our weather records

Advertising

Gelendzhik Weather History for the Previous 24 Hours

Scroll right to see more
 ConditionsComfort  
Time TempWeatherWind HumidityBarometerVisibility
1:30 PM
Tue, May 24
72 °FThunderstorms. Scattered clouds.10 mph61%29.83 "HgN/A
1:00 PM73 °FThunderstorms. Scattered clouds.13 mph61%29.80 "HgN/A
12:30 PM73 °FThunderstorms. Scattered clouds.8 mph61%29.80 "HgN/A
12:00 PM72 °FScattered clouds.3 mph69%29.80 "HgN/A
11:30 AM72 °FPassing clouds.3 mph65%29.80 "HgN/A
11:00 AM70 °FPassing clouds.1 mph64%29.80 "HgN/A
10:30 AM68 °FScattered clouds.3 mph73%29.80 "HgN/A
10:00 AM68 °FScattered clouds.1 mph78%29.80 "HgN/A
9:30 AM64 °FScattered clouds.1 mph100%29.80 "HgN/A
9:00 AM63 °FPassing clouds.No wind100%29.80 "HgN/A
8:30 AM61 °FSunny.1 mph100%29.80 "Hg10 mi
8:00 AM59 °FClear.No wind94%29.80 "Hg4 mi
7:30 AM55 °FFog.1 mph100%29.80 "Hg3 mi
7:00 AM55 °FLight fog.No wind94%29.80 "Hg1 mi
6:30 AM54 °FLight fog.No wind94%29.80 "Hg1 mi
6:00 AM52 °FFog.1 mph100%29.80 "Hg1 mi
5:30 AM50 °FFog.3 mph100%29.80 "Hg2 mi
5:00 AM48 °FFog.3 mph100%29.80 "Hg3 mi
4:30 AM50 °FFog.1 mph94%29.80 "Hg0 mi
4:00 AM50 °FFog.3 mph100%29.77 "Hg1 mi
3:30 AM50 °FFog.3 mph94%29.77 "Hg1 mi
3:00 AM48 °FFog.3 mph100%29.80 "Hg0 mi
2:00 AM48 °FLight fog.3 mph100%29.80 "Hg1 mi
1:30 AM50 °FFog.3 mph94%29.80 "Hg1 mi
1:00 AM50 °FFog.1 mph100%29.83 "Hg0 mi
12:30 AM50 °FLight fog.1 mph94%29.83 "Hg1 mi
12:00 AM52 °FCool.3 mph100%29.83 "Hg6 mi
11:30 PM
Mon, May 23
52 °FCool.1 mph100%29.83 "Hg3 mi
11:00 PM54 °FClear.3 mph100%29.83 "Hg4 mi
10:30 PM54 °FClear.3 mph94%29.83 "Hg6 mi
10:00 PM57 °FClear.3 mph94%29.83 "Hg10 mi
9:30 PM55 °FClear.3 mph94%29.83 "Hg10 mi
9:00 PM57 °FClear.3 mph94%29.83 "Hg10 mi
8:30 PM57 °FClear.6 mph94%29.83 "Hg10 mi
8:00 PM59 °FPassing clouds.3 mph94%29.83 "HgN/A
7:30 PM63 °FPassing clouds.6 mph88%29.83 "HgN/A
7:00 PM64 °FScattered clouds.6 mph83%29.83 "HgN/A
6:30 PM64 °FScattered clouds.6 mph83%29.83 "HgN/A
6:00 PM64 °FScattered clouds.8 mph83%29.83 "HgN/A
5:30 PM64 °FPassing clouds.6 mph83%29.83 "HgN/A
5:00 PM64 °FPassing clouds.6 mph83%29.83 "HgN/A
4:30 PM63 °FSprinkles. Cloudy.6 mph88%29.83 "HgN/A
4:00 PM63 °FLight rain. Scattered clouds.8 mph88%29.83 "HgN/A
3:30 PM63 °FLight rain. Scattered clouds.8 mph88%29.83 "HgN/A
3:00 PM63 °FLight rain. Scattered clouds.8 mph88%29.83 "HgN/A
Weather by CustomWeather, © 2016

See weather overviewHow to use our weather pages